This is the latest recevied weather packets stored in our database for station/object EB2EMZ-15. If no packets are shown the sender has not sent any weather packets the latest 10 day(s).
| Time | Temp. | Humidity | Pressure | Rain* | Wind** | Luminosity | Snow |
|---|---|---|---|---|---|---|---|
| 1778169019 | 20° C | 48% | 988.9 hPa | 0 mm | - | - | - |
| 1778168418 | 20.56° C | 47% | 988.7 hPa | 0 mm | - | - | - |
| 1778168115 | 21.11° C | 48% | 988.5 hPa | 0 mm | - | - | - |
| 1778167819 | 21.11° C | 50% | 988.4 hPa | 0 mm | - | - | - |
| 1778167515 | 21.11° C | 50% | 988 hPa | 0 mm | - | - | - |
| 1778167218 | 21.67° C | 49% | 988 hPa | 0 mm | - | - | - |
| 1778166916 | 21.67° C | 49% | 987.8 hPa | 0 mm | - | - | - |
| 1778166618 | 21.67° C | 49% | 987.8 hPa | 0 mm | - | - | - |
| 1778166316 | 21.67° C | 50% | 987.9 hPa | 0 mm | - | - | - |
| 1778166015 | 21.67° C | 50% | 987.8 hPa | 0 mm | - | - | - |
| 1778165716 | 21.67° C | 50% | 987.9 hPa | 0 mm | - | - | - |
| 1778165418 | 21.11° C | 51% | 988 hPa | 0 mm | - | - | - |
| 1778165115 | 21.11° C | 52% | 988.1 hPa | 0 mm | - | - | - |
| 1778164818 | 21.11° C | 52% | 988.2 hPa | 0 mm | - | - | - |
| 1778164515 | 21.11° C | 53% | 988 hPa | 0 mm | - | - | - |
| 1778164218 | 21.11° C | 54% | 988 hPa | 0 mm | - | - | - |
| 1778163916 | 21.11° C | 54% | 988 hPa | 0 mm | - | - | - |
| 1778163618 | 21.11° C | 55% | 988 hPa | 0 mm | - | - | - |
| 1778163315 | 21.11° C | 56% | 988 hPa | 0 mm | - | - | - |
| 1778163018 | 20.56° C | 55% | 988 hPa | 0 mm | - | - | - |
| 1778162716 | 20.56° C | 56% | 988.1 hPa | 0 mm | - | - | - |
| 1778162416 | 21.11° C | 56% | 988.1 hPa | 0 mm | - | - | - |
| 1778162115 | 21.11° C | 56% | 988.2 hPa | 0 mm | - | - | - |
| 1778161818 | 21.11° C | 55% | 988.3 hPa | 0 mm | - | - | - |
| 1778161515 | 21.11° C | 55% | 988.5 hPa | 0 mm | - | - | - |
* Rain latest hour (hover to see other rain measurements)
** Current wind speed in m/s (hover to see current wind gust speed)